When you browse on this site, cookies collect data to enhance your experience and personalize the content and advertising you see.
Visit our Privacy Policy to learn more. By continuing to use the site, you agree to this use of cookies and data.
  • En España
  • Lista de países
  • Para 7 días
  • Temperatura del agua
  • Mapa Satelital
  • El tiempo en el mapa
  • Informadores
  • user-avatar
    Iniciar sesión

    Tiempo cada hora Charleston

    Hoy, 16 Junio, Domingo

    Tiempo Temperatura Precipitaciones Viento Presión Humedad
    00:00 +22°C° 0 mm 3 mps 743 mmHg 64%
    01:00 +22°C° 0 mm 3 mps 743 mmHg 66%
    02:00 +21°C° 0.5 mm 3 mps 743 mmHg 76%
    03:00 +20°C° 0.5 mm 3 mps 743 mmHg 86%
    04:00 +20°C° 0.5 mm 3 mps 742 mmHg 96%
    05:00 +20°C° 0.5 mm 3 mps 742 mmHg 96%
    06:00 +20°C° 0.5 mm 4 mps 743 mmHg 96%
    07:00 +21°C° 0.5 mm 4 mps 743 mmHg 97%
    08:00 +22°C° 0.5 mm 4 mps 743 mmHg 92%
    09:00 +23°C° 0.5 mm 5 mps 744 mmHg 88%
    10:00 +25°C° 0.5 mm 5 mps 744 mmHg 84%
    11:00 +27°C° 0.1 mm 5 mps 743 mmHg 76%
    12:00 +29°C° 0.1 mm 5 mps 743 mmHg 68%
    13:00 +32°C° 0.1 mm 5 mps 743 mmHg 60%
    14:00 +33°C° 0.1 mm 5 mps 742 mmHg 56%
    15:00 +34°C° 0.1 mm 5 mps 742 mmHg 51%
    16:00 +35°C° 0.1 mm 5 mps 742 mmHg 46%
    17:00 +33°C° 0.2 mm 4 mps 742 mmHg 57%
    18:00 +30°C° 0.2 mm 3 mps 742 mmHg 68%
    19:00 +28°C° 0.2 mm 2 mps 742 mmHg 79%
    20:00 +26°C° 1.9 mm 2 mps 742 mmHg 85%
    21:00 +25°C° 1.9 mm 2 mps 742 mmHg 91%
    22:00 +24°C° 1.9 mm 2 mps 742 mmHg 96%
    23:00 +23°C° 0.5 mm 2 mps 743 mmHg 96%

    Mañana, 17 Junio, Lunes

    Tiempo Temperatura Precipitaciones Viento Presión Humedad
    00:00 +23°C° 0.5 mm 2 mps 743 mmHg 97%
    01:00 +23°C° 0.5 mm 2 mps 743 mmHg 97%
    02:00 +23°C° 1.6 mm 2 mps 743 mmHg 97%
    03:00 +23°C° 1.6 mm 2 mps 743 mmHg 98%
    04:00 +23°C° 1.6 mm 2 mps 743 mmHg 98%
    05:00 +23°C° 0.9 mm 2 mps 743 mmHg 98%
    06:00 +23°C° 0.9 mm 2 mps 744 mmHg 97%
    07:00 +24°C° 0.9 mm 2 mps 744 mmHg 97%
    08:00 +25°C° 0.4 mm 2 mps 744 mmHg 90%
    09:00 +27°C° 0.4 mm 3 mps 745 mmHg 83%
    10:00 +29°C° 0.4 mm 3 mps 745 mmHg 75%
    11:00 +30°C° 0.6 mm 3 mps 745 mmHg 74%
    12:00 +30°C° 0.6 mm 3 mps 745 mmHg 72%
    13:00 +31°C° 0.6 mm 3 mps 744 mmHg 71%
    14:00 +33°C° 0.4 mm 3 mps 744 mmHg 65%
    15:00 +33°C° 0.4 mm 3 mps 744 mmHg 59%
    16:00 +33°C° 0.4 mm 4 mps 744 mmHg 54%
    17:00 +30°C° 0.9 mm 3 mps 744 mmHg 67%
    18:00 +28°C° 0.9 mm 3 mps 744 mmHg 79%
    19:00 +25°C° 0.9 mm 2 mps 744 mmHg 92%
    20:00 +25°C° 0.5 mm 2 mps 744 mmHg 93%
    21:00 +24°C° 0.5 mm 1 mps 744 mmHg 95%
    22:00 +23°C° 0.5 mm 1 mps 744 mmHg 96%
    23:00 +23°C° 0.1 mm 1 mps 744 mmHg 96%

    Pasado mañana, 18 Junio, Martes

    Tiempo Temperatura Precipitaciones Viento Presión Humedad
    00:00 +22°C° 0.1 mm 1 mps 744 mmHg 96%
    01:00 +22°C° 0.1 mm 1 mps 744 mmHg 97%
    02:00 +22°C° 0 mm 1 mps 743 mmHg 97%
    03:00 +22°C° 0 mm 1 mps 743 mmHg 97%
    04:00 +22°C° 0 mm 1 mps 743 mmHg 97%
    05:00 +22°C° 0.1 mm 1 mps 743 mmHg 96%
    06:00 +23°C° 0.1 mm 1 mps 743 mmHg 96%
    07:00 +23°C° 0.1 mm 1 mps 743 mmHg 95%
    08:00 +25°C° 0.6 mm 2 mps 743 mmHg 94%
    09:00 +26°C° 0.6 mm 2 mps 743 mmHg 93%
    10:00 +27°C° 0.6 mm 3 mps 742 mmHg 92%
    11:00 +28°C° 0.9 mm 3 mps 742 mmHg 90%
    12:00 +28°C° 0.9 mm 3 mps 742 mmHg 89%
    13:00 +29°C° 0.9 mm 3 mps 742 mmHg 87%
    14:00 +28°C° 0.9 mm 3 mps 741 mmHg 89%
    15:00 +28°C° 0.9 mm 3 mps 741 mmHg 91%
    16:00 +27°C° 0.9 mm 2 mps 741 mmHg 93%
    17:00 +26°C° 0.9 mm 2 mps 740 mmHg 94%
    18:00 +25°C° 0.9 mm 1 mps 740 mmHg 95%
    19:00 +22°C° 0.9 mm 0 mps 740 mmHg 96%
    20:00 +23°C° 0.2 mm 1 mps 740 mmHg 96%
    21:00 +23°C° 0.2 mm 1 mps 740 mmHg 96%
    22:00 +23°C° 0.2 mm 1 mps 740 mmHg 97%
    23:00 +22°C° 0.2 mm 1 mps 740 mmHg 97%

    19 Junio, Miércoles

    Tiempo Temperatura Precipitaciones Viento Presión Humedad
    00:00 +21°C° 0.2 mm 2 mps 740 mmHg 97%
    01:00 +21°C° 0.2 mm 2 mps 739 mmHg 98%
    02:00 +21°C° 0 mm 2 mps 739 mmHg 98%
    03:00 +21°C° 0 mm 2 mps 739 mmHg 98%
    04:00 +21°C° 0 mm 2 mps 739 mmHg 99%
    05:00 +21°C° 0 mm 2 mps 740 mmHg 98%
    06:00 +21°C° 0 mm 2 mps 740 mmHg 98%
    07:00 +23°C° 0 mm 2 mps 740 mmHg 98%
    08:00 +23°C° 0.1 mm 2 mps 740 mmHg 98%
    09:00 +23°C° 0.1 mm 2 mps 740 mmHg 98%
    10:00 +24°C° 0.1 mm 2 mps 740 mmHg 97%
    11:00 +25°C° 0.2 mm 2 mps 740 mmHg 91%
    12:00 +26°C° 0.2 mm 2 mps 740 mmHg 85%
    13:00 +27°C° 0.2 mm 2 mps 740 mmHg 78%
    14:00 +28°C° 0.1 mm 2 mps 740 mmHg 72%
    15:00 +29°C° 0.1 mm 3 mps 739 mmHg 66%
    16:00 +30°C° 0.1 mm 3 mps 739 mmHg 60%
    17:00 +29°C° 0 mm 2 mps 739 mmHg 67%
    18:00 +28°C° 0 mm 1 mps 739 mmHg 74%
    19:00 +26°C° 0 mm 1 mps 739 mmHg 81%
    20:00 +25°C° 0 mm 1 mps 739 mmHg 85%
    21:00 +21°C° 0 mm 0 mps 739 mmHg 88%
    22:00 +20°C° 0 mm 0 mps 740 mmHg 92%
    23:00 +22°C° 0 mm 1 mps 739 mmHg 92%

    20 Junio, Jueves

    Tiempo Temperatura Precipitaciones Viento Presión Humedad
    00:00 +22°C° 0 mm 1 mps 739 mmHg 91%
    01:00 +21°C° 0 mm 2 mps 738 mmHg 91%
    02:00 +21°C° 0 mm 1 mps 738 mmHg 91%
    03:00 +21°C° 0 mm 1 mps 738 mmHg 91%
    04:00 +21°C° 0 mm 1 mps 738 mmHg 92%
    05:00 +22°C° 0 mm 1 mps 738 mmHg 89%
    06:00 +23°C° 0 mm 1 mps 738 mmHg 86%
    07:00 +24°C° 0 mm 2 mps 738 mmHg 83%
    08:00 +25°C° 0 mm 3 mps 738 mmHg 77%
    09:00 +27°C° 0 mm 3 mps 738 mmHg 72%
    10:00 +28°C° 0 mm 4 mps 738 mmHg 67%
    11:00 +30°C° 0 mm 4 mps 738 mmHg 60%
    12:00 +33°C° 0 mm 4 mps 737 mmHg 54%
    13:00 +34°C° 0 mm 4 mps 737 mmHg 47%
    14:00 +33°C° 0.5 mm 4 mps 737 mmHg 58%
    15:00 +31°C° 0.5 mm 3 mps 736 mmHg 69%
    16:00 +30°C° 0.5 mm 2 mps 736 mmHg 79%
    17:00 +28°C° 1.2 mm 3 mps 736 mmHg 82%
    18:00 +27°C° 1.2 mm 3 mps 735 mmHg 84%
    19:00 +25°C° 1.2 mm 4 mps 735 mmHg 86%
    20:00 +24°C° 1.2 mm 3 mps 735 mmHg 90%
    21:00 +22°C° 1.2 mm 3 mps 735 mmHg 93%
    22:00 +21°C° 1.2 mm 3 mps 735 mmHg 97%
    23:00 +21°C° 0.5 mm 3 mps 735 mmHg 97%

    21 Junio, Viernes

    Tiempo Temperatura Precipitaciones Viento Presión Humedad
    00:00 +21°C° 0.5 mm 4 mps 734 mmHg 97%
    01:00 +20°C° 0.5 mm 4 mps 734 mmHg 97%
    02:00 +20°C° 1.1 mm 4 mps 734 mmHg 97%
    03:00 +20°C° 1.1 mm 5 mps 734 mmHg 97%
    04:00 +20°C° 1.1 mm 5 mps 734 mmHg 97%
    05:00 +20°C° 0.4 mm 5 mps 735 mmHg 98%
    06:00 +20°C° 0.4 mm 5 mps 735 mmHg 98%
    07:00 +20°C° 0.4 mm 5 mps 736 mmHg 98%
    08:00 +21°C° 0.4 mm 5 mps 737 mmHg 95%
    09:00 +22°C° 0.4 mm 5 mps 738 mmHg 92%
    10:00 +22°C° 0.4 mm 5 mps 739 mmHg 89%
    11:00 +25°C° 0.4 mm 5 mps 739 mmHg 80%
    12:00 +26°C° 0.4 mm 5 mps 740 mmHg 72%
    13:00 +27°C° 0.4 mm 5 mps 741 mmHg 64%
    14:00 +27°C° 0.1 mm 5 mps 741 mmHg 63%
    15:00 +27°C° 0.1 mm 5 mps 741 mmHg 63%
    16:00 +26°C° 0.1 mm 5 mps 741 mmHg 63%
    17:00 +25°C° 0 mm 4 mps 742 mmHg 68%
    18:00 +24°C° 0 mm 3 mps 742 mmHg 74%
    19:00 +23°C° 0 mm 2 mps 743 mmHg 80%
    20:00 +20°C° 0 mm 2 mps 743 mmHg 85%
    21:00 +20°C° 0 mm 1 mps 744 mmHg 91%
    22:00 +18°C° 0 mm 1 mps 744 mmHg 96%
    23:00 +18°C° 0 mm 1 mps 744 mmHg 97%
    Mostrar más